KE9DBJ-13 Weather Reports


time (UTC)temp
C
wind
direction
speed
KPH
gust
KPH
rain 1hr
cm
rain 24hr
cm
rain mn
cm
humidity
%
barometer
mb
20260906013003 23 169 0.0 3.2 0.97 0.00 0.00 88 1011.5
20260906012002 24 127 0.0 4.8 0.79 0.00 0.00 84 1011.8
20260906011002 25 71 0.0 12.9 0.00 0.00 0.00 80 1011.4
20260906010002 26 59 0.0 17.7 0.00 0.00 0.00 78 1010.8
20260906005002 26 54 0.0 29.0 0.00 0.00 0.00 82 1010.2
20260906004002 26 0.0 0.0 0.00 0.00 0.00 84 1010.0
20260906003002 27 0.0 0.0 0.00 0.00 0.00 83 1009.8
20260906002002 27 0.0 1.6 0.00 0.00 0.00 82 1009.6
20260906001002 27 0.0 0.0 0.00 0.00 0.00 81 1009.7
20260906000002 28 191 0.0 3.2 0.00 0.00 0.00 80 1010.0
20260905235002 28 0.0 0.0 0.00 0.00 0.00 79 1010.0
20260905234003 29 0.0 0.0 0.00 0.00 0.00 78 1010.3
20260905233003 29 0.0 0.0 0.00 0.00 0.00 77 1010.1
20260905232003 30 254 0.0 3.2 0.00 0.00 0.00 74 1010.1
20260905231003 30 0.0 0.0 0.00 0.00 0.00 74 1010.1
20260905230003 30 0.0 0.0 0.00 0.00 0.00 71 1010.0
20260905225003 31 0.0 0.0 0.00 0.00 0.00 68 1009.9
20260905224002 31 0.0 0.0 0.00 0.00 0.00 66 1009.7
20260905223002 31 177 0.0 3.2 0.00 0.00 0.00 65 1009.8
20260905222002 31 180 0.0 3.2 0.00 0.00 0.00 62 1009.8
20260905221002 32 301 0.0 4.8 0.00 0.00 0.00 57 1009.6
20260905220002 32 277 0.0 6.4 0.00 0.00 0.00 56 1009.5
20260905215002 33 22 0.0 8.0 0.00 0.00 0.00 55 1009.6
20260905214002 33 334 0.0 6.4 0.00 0.00 0.00 55 1009.6
20260905213002 33 304 0.0 8.0 0.00 0.00 0.00 54 1009.7
20260905212002 33 333 0.0 6.4 0.00 0.00 0.00 52 1009.8
20260905211002 34 292 0.0 8.0 0.00 0.00 0.00 50 1009.8
20260905210003 34 328 0.0 8.0 0.00 0.00 0.00 50 1010.0
20260905205003 33 356 0.0 6.4 0.00 0.00 0.00 53 1010.1
20260905204003 34 20 0.0 6.4 0.00 0.00 0.00 50 1010.2
20260905203003 34 320 0.0 9.7 0.00 0.00 0.00 49 1010.1
20260905202003 35 30 0.0 8.0 0.00 0.00 0.00 50 1010.2
20260905201002 35 100 0.0 4.8 0.00 0.00 0.00 49 1010.3
20260905200002 35 319 0.0 8.0 0.00 0.00 0.00 48 1010.4
20260905195002 35 275 0.0 6.4 0.00 0.00 0.00 48 1010.6
20260905194002 35 331 0.0 8.0 0.00 0.00 0.00 49 1010.8
20260905193002 35 35 0.0 6.4 0.00 0.00 0.00 49 1010.9
20260905192002 35 316 0.0 8.0 0.00 0.00 0.00 48 1011.0
20260905191002 35 20 0.0 9.7 0.00 0.00 0.00 49 1011.2
20260905190002 35 291 0.0 11.3 0.00 0.00 0.00 48 1011.2
20260905185002 35 346 0.0 8.0 0.00 0.00 0.00 50 1011.3
20260905184002 35 305 0.0 8.0 0.00 0.00 0.00 48 1011.4
20260905183002 35 293 0.0 8.0 0.00 0.00 0.00 49 1011.5
20260905182002 35 288 0.0 9.7 0.00 0.00 0.00 49 1011.5
20260905181003 34 300 0.0 8.0 0.00 0.00 0.00 50 1011.5
20260905180003 34 302 0.0 8.0 0.00 0.00 0.00 50 1011.7
20260905175003 33 335 0.0 8.0 0.00 0.00 0.00 51 1011.8
20260905174003 33 274 0.0 9.7 0.00 0.00 0.00 52 1012.0
20260905173003 33 301 0.0 8.0 0.00 0.00 0.00 52 1012.2
20260905172002 32 337 0.0 6.4 0.00 0.00 0.00 53 1012.4
20260905171002 32 44 0.0 6.4 0.00 0.00 0.00 53 1012.6
20260905170002 32 309 0.0 6.4 0.00 0.00 0.00 51 1012.7
20260905165002 32 97 0.0 8.0 0.00 0.00 0.00 52 1012.9
20260905164002 32 311 0.0 8.0 0.00 0.00 0.00 54 1013.0
20260905163002 31 333 0.0 8.0 0.00 0.00 0.00 54 1012.9
20260905162002 31 152 0.0 6.4 0.00 0.00 0.00 54 1013.0
20260905161002 31 155 0.0 4.8 0.00 0.00 0.00 54 1013.0
20260905160002 31 50 0.0 6.4 0.00 0.00 0.00 53 1012.9
20260905155002 31 38 0.0 6.4 0.00 0.00 0.00 51 1013.2
20260905154002 30 64 0.0 6.4 0.00 0.00 0.00 52 1013.0
20260905153003 30 129 0.0 4.8 0.00 0.00 0.00 53 1012.7
20260905152003 30 164 0.0 8.0 0.00 0.00 0.00 53 1012.8
20260905151003 29 304 0.0 8.0 0.00 0.00 0.00 55 1012.8
20260905150003 29 94 0.0 4.8 0.00 0.00 0.00 55 1013.0
20260905145003 28 360 0.0 4.8 0.00 0.00 0.00 57 1013.1
20260905144003 28 102 0.0 4.8 0.00 0.00 0.00 60 1013.3
20260905143003 27 123 0.0 6.4 0.00 0.00 0.00 61 1013.6
20260905142002 27 124 0.0 4.8 0.00 0.00 0.00 63 1013.7
20260905141002 26 22 0.0 6.4 0.00 0.00 0.00 66 1013.8
20260905140002 26 144 0.0 6.4 0.00 0.00 0.00 66 1014.2
20260905135002 26 332 0.0 8.0 0.00 0.00 0.00 68 1014.5
20260905134002 25 49 0.0 8.0 0.00 0.00 0.00 74 1014.6
20260905133002 24 29 0.0 4.8 0.00 0.00 0.00 78 1014.7
20260905132002 23 306 0.0 3.2 0.00 0.00 0.00 80 1014.9
20260905131002 23 21 0.0 6.4 0.00 0.00 0.00 78 1015.1
20260905130002 23 110 0.0 4.8 0.00 0.00 0.00 79 1015.2
20260905125002 22 66 0.0 6.4 0.00 0.00 0.00 81 1015.5
20260905124003 22 271 0.0 6.4 0.00 0.00 0.00 80 1015.9
20260905123003 22 208 0.0 4.8 0.00 0.00 0.00 81 1015.8
20260905122003 22 176 0.0 4.8 0.00 0.00 0.00 83 1015.7
20260905121003 22 180 0.0 1.6 0.00 0.00 0.00 84 1015.3
20260905120003 22 0.0 0.0 0.00 0.00 0.00 83 1015.2
20260905115003 22 180 0.0 3.2 0.00 0.00 0.00 82 1015.0
20260905114002 22 66 0.0 11.3 0.00 0.00 0.00 81 1015.0
20260905113002 22 70 0.0 12.9 0.00 0.00 0.00 82 1015.0
20260905112002 22 32 0.0 16.1 0.00 0.00 0.00 82 1015.0
20260905111002 22 80 0.0 24.1 0.00 0.00 0.00 84 1015.0
20260905110002 22 65 0.0 24.1 0.00 0.00 0.00 87 1014.2
20260905105002 21 29 0.0 19.3 0.00 0.00 0.00 92 1012.3
20260905104002 21 0.0 0.0 0.00 0.00 0.00 92 1012.3
20260905103002 21 0.0 0.0 0.00 0.00 0.00 92 1012.7
20260905102002 21 0.0 0.0 0.00 0.00 0.00 92 1012.7
20260905101003 21 0.0 0.0 0.00 0.00 0.00 92 1012.9
20260905100003 21 0.0 0.0 0.00 0.00 0.00 92 1013.4
20260905095003 21 0.0 0.0 0.00 0.00 0.00 92 1013.2
20260905094003 21 0.0 0.0 0.00 0.00 0.00 92 1012.8
20260905093003 21 0.0 0.0 0.00 0.00 0.00 92 1012.8
20260905092003 21 0.0 0.0 0.00 0.00 0.00 92 1012.7
20260905091002 21 0.0 0.0 0.00 0.00 0.00 92 1012.3
20260905090002 21 0.0 0.0 0.00 0.00 0.00 92 1012.6
20260905085002 21 0.0 0.0 0.00 0.00 0.00 92 1012.6
20260905084002 21 0.0 0.0 0.00 0.00 0.00 92 1012.6
20260905083002 21 0.0 0.0 0.00 0.00 0.00 92 1012.5
20260905082002 21 0.0 0.0 0.00 0.00 0.00 92 1012.3
20260905081002 21 0.0 0.0 0.00 0.00 0.00 92 1012.1
20260905080002 21 0.0 0.0 0.00 0.00 0.00 92 1012.0
20260905075002 21 0.0 0.0 0.00 0.00 0.00 92 1011.9
20260905074002 21 0.0 0.0 0.00 0.00 0.00 92 1012.0
20260905073002 21 0.0 0.0 0.00 0.00 0.00 92 1012.1
20260905072003 21 0.0 0.0 0.00 0.00 0.00 92 1012.1
20260905071003 21 0.0 0.0 0.00 0.00 0.00 92 1012.2
20260905070003 21 0.0 0.0 0.00 0.00 0.00 92 1012.5
20260905065003 21 0.0 0.0 0.00 0.00 0.00 92 1012.6
20260905064002 21 0.0 0.0 0.00 0.00 0.00 92 1012.8
20260905063003 21 0.0 0.0 0.00 0.00 0.00 92 1012.8
20260905062003 21 0.0 0.0 0.00 0.00 0.00 92 1012.9
20260905061002 21 0.0 0.0 0.00 0.00 0.00 92 1013.0
20260905060002 21 0.0 0.0 0.00 0.00 0.00 92 1013.2
20260905055002 21 0.0 0.0 0.00 0.00 0.00 92 1013.3
20260905054002 21 0.0 0.0 0.00 0.00 0.00 92 1013.3
20260905053002 22 0.0 0.0 0.00 0.00 0.00 92 1013.3
20260905052002 22 0.0 0.0 0.00 0.00 0.00 92 1013.4
20260905051002 22 0.0 0.0 0.00 0.00 0.00 92 1013.6
20260905050002 22 0.0 0.0 0.00 0.00 0.00 92 1013.7
20260905045002 22 0.0 0.0 0.00 0.00 0.00 92 1013.6
20260905044002 22 0.0 0.0 0.00 0.00 0.00 92 1013.6
20260905043003 22 0.0 0.0 0.00 0.00 0.00 92 1013.6
20260905042003 22 0.0 0.0 0.00 0.00 0.00 92 1013.6
20260905041003 22 0.0 0.0 0.00 0.00 0.00 92 1013.6
20260905040003 22 0.0 0.0 0.00 0.00 0.00 91 1013.6
20260905035003 22 0.0 0.0 0.00 0.00 0.00 91 1013.6
20260905034002 22 0.0 0.0 0.00 0.00 0.00 91 1013.6
20260905033002 22 0.0 0.0 0.00 0.00 0.00 91 1013.6
20260905032002 22 0.0 0.0 0.00 0.00 0.00 91 1013.5
20260905031002 22 0.0 0.0 0.00 0.00 0.00 91 1013.4
20260905030002 22 0.0 0.0 0.00 0.00 0.00 91 1013.4
20260905025002 22 0.0 0.0 0.00 0.00 0.00 91 1013.4
20260905024002 22 0.0 0.0 0.00 0.00 0.00 90 1013.4
20260905023002 23 0.0 0.0 0.00 0.00 0.00 90 1013.4
20260905022002 23 0.0 0.0 0.00 0.00 0.00 89 1013.4
20260905021002 23 0.0 0.0 0.00 0.00 0.00 89 1013.4
20260905020002 23 0.0 0.0 0.00 0.00 0.00 89 1013.3
20260905015003 23 0.0 0.0 0.00 0.00 0.00 88 1013.3
20260905014003 23 0.0 0.0 0.00 0.00 0.00 88 1013.4